{"data":{"norad_id":47823,"intl_designator":"2021-018AN","name":"STARLINK-2408","alt_names":[],"object_type":"PAYLOAD","status":"ACTIVE","operator":null,"country":"US","launch_date":"2021-03-11","launch_site_code":"AFETR","launch_vehicle":null,"mission":null,"orbit_class":"UNKNOWN","rcs_meters":null,"size_class":null,"mass_kg":null,"dimensions":null,"purposes":["comms"],"wikipedia_slug":null,"has_3d_model":false,"image_url":null,"decayed_at":null,"tle_current":{"epoch":"2026-09-20T00:04:14.784096Z","epoch_age_seconds":72181,"freshness":"FRESH","line1":"1 47823U 21018AN  26263.00294889  .00000741  00000+0  35616-4 0  9991","line2":"2 47823  53.1592  73.7589 0001125  76.4967 283.6159 15.31709052306273","mean_motion":15.31709052,"eccentricity":0.0001125,"inclination_deg":53.1592,"raan_deg":73.7589,"arg_perigee_deg":76.4967,"mean_anomaly_deg":283.6159,"bstar":3.5616e-5,"rev_number":30627,"period_min":94.01263236773,"perigee_km":469.94251619123,"apogee_km":471.48350744389,"semimajor_km":6848.8500118176,"source":"CELESTRAK","updated_at":"2026-09-20T09:00:38.750012Z"}}}